Location: Cheyres
(46.8153°N, 6.7877°E)
Time: 00:33:57
(UTC+00:00)

FENGYUN 1C DEB - Pass Details

Date: 01 December 2021
Orbit: 843 x 915 km, 99.0° (Epoch: 21 January)

Event Time Altitude Azimuth Distance (km) Brightness Sun altitude
Exits shadow 16:56:22 11° 42° (NE) 2,416 ? -11.6°
Drops below altitude 10° 16:57:23 10° 32° (NNE) 2,508 ? -11.8°
Sets 17:01:30 0° 1° (N) 3,435 ? -12.4°
